Weather History for K36U - March, 2013

Change the Weather History Date:

Friday, March 22, 2013

  Actual Average (KPVU) Record (KPVU)
Temperature  
Mean Temperature 25 °F -  
Max Temperature 33 °F 54 °F 80 °F (2004)
Min Temperature 17 °F 32 °F 25 °F (1985)
Degree Days  
Heating Degree Days 40    
Moisture  
Dew Point 17 °F    
Average Humidity 72    
Maximum Humidity 93    
Minimum Humidity 32    
Precipitation  
Precipitation 0.00 in - - ()
Sea Level Pressure  
Sea Level Pressure 29.89 in    
Wind  
Wind Speed 3 mph (NE)    
Max Wind Speed 23 mph    
Max Gust Speed 29 mph    
Visibility 7 miles    
Events Snow    
Averages and records for this station are not official NWS values.
T = Trace of Precipitation, MM = Missing Value Source: NWS Daily Summary

Daily Weather History Graph

Daily Weather History Graph

Search for Another Location

Airport or City:

Trip Planner

Search our weather history database for the weather conditions in past years. The results will help you decide how hot, cold, wet, or windy it might be!

Date:

Astronomy

Mar. 22, 2013 Rise Set
Actual Time 7:25 AM MDT 7:40 PM MDT
Civil Twilight 6:58 AM MDT 8:07 PM MDT
Nautical Twilight 6:26 AM MDT 8:39 PM MDT
Astronomical Twilight 5:53 AM MDT 9:12 PM MDT
Moon 3:10 PM MDT (3/22) 4:28 AM MDT (3/22)
Length of Visible Light 13h 09m
Length of Day
12h 14m
Waxing Gibbous, 78% of the Moon is Illuminated
Mar 22
Waxing Gibbous
Mar 27
Full
Apr 2
Last Quarter
Apr 10
New
Apr 18
First Quarter

Hourly Weather History & Observations

Time (MDT) Temp. Windchill Dew Point Humidity Pressure Visibility Wind Dir Wind Speed Gust Speed Precip Events Conditions
12:15 AM 21.2 °F 14.9 °F 12.2 °F 68% 29.95 in 10.0 mi ESE 4.6 mph - N/A   Clear
12:35 AM 21.2 °F - 12.2 °F 68% 29.95 in 10.0 mi Calm Calm - N/A   Clear
12:55 AM 23.0 °F 18.4 °F 10.4 °F 59% 29.94 in 10.0 mi East 3.5 mph - N/A   Clear
1:15 AM 21.2 °F - 10.4 °F 63% 29.94 in 10.0 mi Calm Calm - N/A   Clear
1:35 AM 21.2 °F - 12.2 °F 68% 29.93 in 10.0 mi Calm Calm - N/A   Clear
1:55 AM 19.4 °F - 12.2 °F 74% 29.93 in 10.0 mi Calm Calm - N/A   Clear
2:15 AM 19.4 °F - 12.2 °F 74% 29.93 in 10.0 mi Calm Calm - N/A   Clear
2:35 AM 19.4 °F - 12.2 °F 74% 29.93 in 10.0 mi Calm Calm - N/A   Clear
2:55 AM 17.6 °F 10.7 °F 10.4 °F 73% 29.93 in 10.0 mi ESE 4.6 mph - N/A   Clear
3:15 AM 19.4 °F 14.3 °F 10.4 °F 68% 29.91 in 10.0 mi ESE 3.5 mph - N/A   Clear
3:35 AM 19.4 °F 14.3 °F 12.2 °F 74% 29.91 in 10.0 mi East 3.5 mph - N/A   Mostly Cloudy
3:55 AM 21.2 °F - 12.2 °F 68% 29.91 in 10.0 mi Calm Calm - N/A   Mostly Cloudy
4:15 AM 19.4 °F - 12.2 °F 74% 29.91 in 10.0 mi Calm Calm - N/A   Scattered Clouds
4:35 AM 19.4 °F - 12.2 °F 74% 29.90 in 10.0 mi Calm Calm - N/A   Scattered Clouds
4:55 AM 21.2 °F - 12.2 °F 68% 29.90 in 10.0 mi Calm Calm - N/A   Mostly Cloudy
5:15 AM 23.0 °F - 14.0 °F 68% 29.89 in 10.0 mi Calm Calm - N/A   Overcast
5:35 AM 23.0 °F 17.0 °F 14.0 °F 68% 29.88 in 10.0 mi WSW 4.6 mph - N/A   Overcast
5:55 AM 24.8 °F 20.5 °F 17.6 °F 74% 29.88 in 10.0 mi WSW 3.5 mph - N/A   Overcast
6:15 AM 24.8 °F 19.1 °F 17.6 °F 74% 29.88 in 10.0 mi WNW 4.6 mph - N/A   Overcast
6:35 AM 24.8 °F 20.5 °F 17.6 °F 74% 29.87 in 10.0 mi NNE 3.5 mph - N/A   Overcast
6:55 AM 24.8 °F - 17.6 °F 74% 29.87 in 10.0 mi Calm Calm - N/A   Overcast
7:15 AM 24.8 °F - 17.6 °F 74% 29.87 in 7.0 mi Calm Calm - N/A Snow Light Snow
7:35 AM 23.0 °F - 19.4 °F 86% 29.87 in 2.0 mi Calm Calm - N/A Snow Light Snow
7:55 AM 23.0 °F - 19.4 °F 86% 29.87 in 2.0 mi Calm Calm - N/A Snow Light Snow
8:15 AM 23.0 °F 18.4 °F 21.2 °F 93% 29.87 in 1.8 mi East 3.5 mph - N/A Snow Light Snow
8:35 AM 23.0 °F 18.4 °F 21.2 °F 93% 29.87 in 1.2 mi ESE 3.5 mph - N/A Snow Light Snow
8:55 AM 24.8 °F - 21.2 °F 86% 29.87 in 1.0 mi Calm Calm - N/A Snow Light Snow
9:15 AM 24.8 °F - 21.2 °F 86% 29.86 in 1.2 mi Calm Calm - N/A Snow Light Snow
9:35 AM 24.8 °F - 21.2 °F 86% 29.86 in 1.0 mi Calm Calm - N/A Snow Light Snow
9:55 AM 26.6 °F - 21.2 °F 80% 29.86 in 1.8 mi Calm Calm - N/A Snow Light Snow
10:15 AM 26.6 °F 22.6 °F 23.0 °F 86% 29.86 in 1.2 mi North 3.5 mph - N/A Snow Light Snow
10:35 AM 26.6 °F 22.6 °F 23.0 °F 86% 29.86 in 1.8 mi North 3.5 mph - N/A Snow Light Snow
10:55 AM 26.6 °F - 23.0 °F 86% 29.86 in 0.5 mi Calm Calm - N/A Snow Snow
11:15 AM 26.6 °F - 23.0 °F 86% 29.86 in 0.5 mi Calm Calm - N/A Snow Snow
11:35 AM 26.6 °F - 23.0 °F 86% 29.86 in 0.8 mi Calm Calm - N/A Snow Light Snow
11:55 AM 28.4 °F 24.6 °F 23.0 °F 80% 29.86 in 2.0 mi SE 3.5 mph - N/A Snow Light Snow
12:15 PM 28.4 °F 24.6 °F 21.2 °F 74% 29.86 in 1.5 mi South 3.5 mph - N/A Snow Light Snow
12:35 PM 28.4 °F 24.6 °F 23.0 °F 80% 29.86 in 7.0 mi SW 3.5 mph - N/A   Overcast
12:55 PM 30.2 °F 25.4 °F 24.8 °F 80% 29.86 in 2.5 mi SW 4.6 mph - N/A Snow Light Snow
1:15 PM 32.0 °F 28.7 °F 26.6 °F 80% 29.85 in 5.0 mi SE 3.5 mph - N/A   Haze
1:35 PM 30.2 °F - 23.0 °F 75% 29.85 in 10.0 mi Calm Calm - N/A   Mostly Cloudy
1:55 PM 30.2 °F 22.6 °F 23.0 °F 75% 29.85 in 10.0 mi SW 8.1 mph - N/A Snow Light Snow
2:15 PM 30.2 °F 24.3 °F 23.0 °F 75% 29.84 in 5.0 mi SW 5.8 mph - N/A Snow Light Snow
2:35 PM 30.2 °F 24.3 °F 21.2 °F 69% 29.84 in 3.0 mi SSE 5.8 mph - N/A Snow Light Snow
2:55 PM 30.2 °F 26.7 °F 19.4 °F 64% 29.84 in 4.0 mi WNW 3.5 mph - N/A Snow Light Snow
3:15 PM 30.2 °F - 19.4 °F 64% 29.84 in 10.0 mi Calm Calm - N/A   Overcast
3:35 PM 32.0 °F 25.6 °F 17.6 °F 55% 29.83 in 10.0 mi North 6.9 mph - N/A   Overcast
3:55 PM 30.2 °F 18.5 °F 12.2 °F 47% 29.83 in 10.0 mi NW 17.3 mph - N/A   Overcast
4:15 PM 33.8 °F 24.3 °F 10.4 °F 38% 29.84 in 10.0 mi West 13.8 mph 21.9 mph N/A   Mostly Cloudy
4:35 PM 33.8 °F 24.8 °F 6.8 °F 32% 29.84 in 10.0 mi NNW 12.7 mph 18.4 mph N/A   Scattered Clouds
4:55 PM 32.0 °F 19.2 °F 12.2 °F 44% 29.85 in 10.0 mi North 23.0 mph 28.8 mph N/A   Scattered Clouds
5:15 PM 28.4 °F 17.0 °F 17.6 °F 64% 29.86 in 10.0 mi North 15.0 mph - N/A   Mostly Cloudy
5:35 PM 32.0 °F 21.2 °F 15.8 °F 51% 29.87 in 10.0 mi North 16.1 mph - N/A   Overcast
5:55 PM 30.2 °F 19.3 °F 14.0 °F 51% 29.87 in 10.0 mi North 15.0 mph 21.9 mph N/A   Scattered Clouds
6:15 PM 28.4 °F 16.2 °F 17.6 °F 64% 29.88 in 10.0 mi North 17.3 mph 23.0 mph N/A   Mostly Cloudy
6:35 PM 28.4 °F 18.5 °F 17.6 °F 64% 29.89 in 10.0 mi North 11.5 mph - N/A   Mostly Cloudy
6:55 PM 26.6 °F 15.7 °F 15.8 °F 64% 29.90 in 10.0 mi North 12.7 mph - N/A   Mostly Cloudy
7:15 PM 24.8 °F 15.3 °F 17.6 °F 74% 29.91 in 10.0 mi NNW 9.2 mph - N/A Snow Light Snow
7:35 PM 24.8 °F 14.6 °F 17.6 °F 74% 29.91 in 10.0 mi North 10.4 mph - N/A   Overcast
7:55 PM 23.0 °F - 15.8 °F 74% 29.91 in 10.0 mi Calm Calm - N/A   Mostly Cloudy
8:15 PM 23.0 °F 18.4 °F 15.8 °F 74% 29.91 in 10.0 mi South 3.5 mph - N/A   Scattered Clouds
8:35 PM 23.0 °F 18.4 °F 14.0 °F 68% 29.92 in 10.0 mi South 3.5 mph - N/A   Clear
8:55 PM 23.0 °F - 12.2 °F 63% 29.92 in 10.0 mi Calm Calm - N/A   Scattered Clouds
9:15 PM 23.0 °F - 14.0 °F 68% 29.93 in 10.0 mi Calm Calm - N/A   Mostly Cloudy
9:35 PM 23.0 °F - 12.2 °F 63% 29.93 in 10.0 mi Calm Calm - N/A   Mostly Cloudy
9:55 PM 21.2 °F 13.6 °F 14.0 °F 74% 29.93 in 10.0 mi East 5.8 mph - N/A   Scattered Clouds
10:15 PM 21.2 °F 13.6 °F 14.0 °F 74% 29.94 in 10.0 mi East 5.8 mph - N/A   Mostly Cloudy
10:35 PM 21.2 °F 16.4 °F 14.0 °F 74% 29.94 in 10.0 mi East 3.5 mph - N/A   Overcast
10:55 PM 23.0 °F - 14.0 °F 68% 29.94 in 5.0 mi Calm Calm - N/A Snow Light Snow
11:15 PM 21.2 °F - 17.6 °F 86% 29.95 in 3.0 mi Calm Calm - N/A Snow Light Snow
11:55 PM 21.2 °F - 19.4 °F 93% 29.96 in 1.8 mi Calm Calm - N/A Snow Light Snow